レモン彗星

C/2020 T5 ( Lemmon )

English version
Home page
Updated on February 21, 2021

---------------------------------------------------------------------

・ プロフィール

発見日 2020年10月5日
発見光度 20.5等
発見者 Mount Lemmon Survey

・ 軌道要素

Epoch 2020 Sept. 28.0 TT = JDT 2459120.5
T 2020 Oct.  9.61894 TT                                 Rudenko
q   1.8889759            (2000.0)            P               Q
z  +0.0011572      Peri.   90.29164     +0.33894310     +0.53025910
 +/-0.0000084      Node   237.86084     -0.55492193     +0.77972041
e   0.9978140      Incl.   66.60359     +0.75972312     +0.33295852
From 114 observations 2020 Apr. 19-2021 Jan. 16, mean residual 1".0.

・ 光度変化

        m1 = 16.0 + 5 logΔ + 10.0 log r

---------------------------------------------------------------------

軌道要素はM.P.E.C. 2021-B143に掲載されたものです。
光度グラフはComet for Windowsで作成したものです。

---------------------------------------------------------------------

Copyright(C) Seiichi Yoshida (comet@aerith.net). All rights reserved.